COSMOS 2514 (751) (41330 NORAD) Tracking and Keplerian Element Data

This shows tracking and keplerian element data for the satellite.

Feedback or suggestion? Click here.




ElementValue
Catalog41330
NameCOSMOS 2514 (751)
Epoch Orbit7680
Epoch Day354.0276966
Epoch Year2025
RAAN319.1545
Inclination65.1296
Eccentricity0.0011788
Argument of Perigee220.1446
Mean Anonmoly139.76
Mean Motion2.13102687
Decay Rate-5.4E-07
L11 41330U 16008A 25354.02769660 -.00000054 00000+0 00000+0 0 9999
L22 41330 65.1296 319.1545 0011788 220.1446 139.7600 2.13102687 76801



Live tracking and technical data element details for COSMOS 2514 (751) (NORAD 41330). COSMOS 2514 (751) can be tracked NOW for your location showing map with azimuth and elevation plus other details from your city location.







IsCatalogInMostPopularTable: catalog: 41330, numindb: 656
Update: records affected: 1



GetName: 41330 COSMOS 2514 (751)

Hit Count: updated at: Sat, 14 Mar 2026 02:34:12 GMT